| time (UTC) | temp F | wind direction | speed MPH | gust MPH | rain 1hr in | rain 24hr in | rain mn in | humidity % | barometer mb |
| 20260903040028 | 67 | 236 | 5.0 | 12.0 | 0.00 | 1.70 | 0.00 | 33 | 1008.6 |
| 20260903034529 | 67 | 339 | 5.0 | 12.0 | 0.01 | 1.70 | 1.70 | 33 | 1008.8 |
| 20260903033029 | 67 | 250 | 2.0 | 8.0 | 0.03 | 1.70 | 1.70 | 33 | 1009.1 |
| 20260903031533 | 68 | 265 | 2.0 | 9.0 | 0.10 | 1.70 | 1.70 | 33 | 1009.2 |
| 20260903030025 | 68 | 271 | 3.0 | 12.0 | 0.10 | 1.70 | 1.70 | 33 | 1009.4 |
| 20260903024524 | 68 | 242 | 5.0 | 13.0 | 0.09 | 1.69 | 1.69 | 33 | 1009.7 |
| 20260903023024 | 68 | 238 | 2.0 | 12.0 | 0.08 | 1.67 | 1.67 | 33 | 1010.3 |
| 20260903021534 | 68 | 306 | 7.0 | 10.0 | 0.01 | 1.60 | 1.60 | 33 | 1011.1 |
| 20260903020027 | 68 | 232 | 1.0 | 8.0 | 0.01 | 1.60 | 1.60 | 33 | 1009.7 |
| 20260903014521 | 68 | 228 | 4.0 | 12.0 | 0.01 | 1.60 | 1.60 | 34 | 1010.1 |
| 20260903013021 | 68 | 243 | 1.0 | 4.0 | 0.01 | 1.59 | 1.59 | 34 | 1010.3 |
| 20260903011520 | 68 | 244 | 2.0 | 7.0 | 0.10 | 1.59 | 1.59 | 34 | 1010.1 |
| 20260903010022 | 68 | 277 | 3.0 | 16.0 | 0.36 | 1.59 | 1.59 | 35 | 1011.0 |
| 20260903004524 | 68 | 294 | 3.0 | 8.0 | 0.36 | 1.59 | 1.59 | 37 | 1010.7 |
| 20260903003018 | 69 | 296 | 2.0 | 8.0 | 0.35 | 1.58 | 1.58 | 38 | 1009.9 |
| 20260903001517 | 70 | 284 | 7.0 | 26.0 | 0.26 | 1.49 | 1.49 | 40 | 1010.7 |
| 20260903000034 | 73 | 355 | 12.0 | 31.0 | 0.00 | 1.23 | 1.23 | 40 | 1008.4 |
| 20260902234516 | 74 | 234 | 1.0 | 9.0 | 0.00 | 1.23 | 1.23 | 40 | 1007.3 |
| 20260902233015 | 75 | 241 | 2.0 | 11.0 | 0.01 | 1.23 | 1.23 | 39 | 1007.4 |
| 20260902231517 | 77 | 240 | 4.0 | 16.0 | 0.07 | 1.23 | 1.23 | 37 | 1008.1 |
| 20260902230012 | 78 | 290 | 5.0 | 15.0 | 0.07 | 1.23 | 1.23 | 36 | 1008.1 |
| 20260902224512 | 79 | 269 | 1.0 | 5.0 | 0.07 | 1.23 | 1.23 | 39 | 1008.4 |
| 20260902223020 | 80 | 273 | 0.0 | 3.0 | 0.06 | 1.22 | 1.22 | 43 | 1008.8 |
| 20260902221516 | 80 | 273 | 0.0 | 4.0 | 0.00 | 1.15 | 1.15 | 47 | 1007.9 |
| 20260902220023 | 81 | 273 | 0.0 | 5.0 | 0.00 | 1.15 | 1.15 | 50 | 1007.9 |
| 20260902214530 | 81 | 273 | 0.0 | 4.0 | 0.00 | 1.15 | 1.15 | 49 | 1008.3 |
| 20260902213006 | 81 | 273 | 1.0 | 5.0 | 0.00 | 1.15 | 1.15 | 51 | 1008.2 |
| 20260902211505 | 81 | 277 | 0.0 | 8.0 | 0.00 | 1.15 | 1.15 | 52 | 1008.7 |
| 20260902210011 | 81 | 277 | 2.0 | 6.0 | 0.00 | 1.15 | 1.15 | 53 | 1008.6 |
| 20260902204601 | 81 | 281 | 3.0 | 8.0 | 0.00 | 1.15 | 1.15 | 54 | 1009.6 |
| 20260902203100 | 82 | 339 | 1.0 | 6.0 | 0.00 | 1.15 | 1.15 | 51 | 1009.7 |
| 20260902201559 | 82 | 297 | 3.0 | 9.0 | 0.00 | 1.15 | 1.15 | 48 | 1009.9 |
| 20260902200056 | 81 | 300 | 5.0 | 10.0 | 0.00 | 1.15 | 1.15 | 52 | 1010.0 |
| 20260902194555 | 81 | 309 | 3.0 | 9.0 | 0.00 | 1.15 | 1.15 | 46 | 1009.9 |
| 20260902193055 | 80 | 300 | 5.0 | 13.0 | 0.00 | 1.15 | 1.15 | 48 | 1010.2 |
| 20260902191555 | 80 | 287 | 5.0 | 13.0 | 0.00 | 1.15 | 1.15 | 43 | 1010.3 |
| 20260902190053 | 79 | 311 | 4.0 | 13.0 | 0.00 | 1.15 | 1.15 | 43 | 1010.4 |
| 20260902184553 | 79 | 269 | 2.0 | 10.0 | 0.00 | 1.15 | 1.15 | 41 | 1010.2 |
| 20260902183102 | 79 | 237 | 0.0 | 9.0 | 0.00 | 1.15 | 1.15 | 45 | 1009.7 |
| 20260902181554 | 80 | 238 | 2.0 | 10.0 | 0.00 | 1.15 | 1.15 | 46 | 1010.1 |
| 20260902180050 | 80 | 298 | 3.0 | 9.0 | 0.00 | 1.15 | 1.15 | 48 | 1010.7 |
| 20260902174553 | 80 | 312 | 3.0 | 11.0 | 0.00 | 1.15 | 1.15 | 49 | 1011.2 |
| 20260902173109 | 81 | 273 | 6.0 | 12.0 | 0.00 | 1.15 | 1.15 | 49 | 1011.2 |
| 20260902171546 | 81 | 277 | 3.0 | 9.0 | 0.00 | 1.15 | 1.15 | 39 | 1010.9 |
| 20260902170042 | 80 | 253 | 2.0 | 10.0 | 0.00 | 1.15 | 1.15 | 33 | 1010.8 |
| 20260902164540 | 79 | 279 | 2.0 | 12.0 | 0.00 | 1.15 | 1.15 | 31 | 1011.0 |
| 20260902163038 | 78 | 267 | 3.0 | 13.0 | 0.00 | 1.15 | 1.15 | 36 | 1011.0 |
| 20260902161534 | 77 | 265 | 5.0 | 13.0 | 0.00 | 1.15 | 1.15 | 33 | 1011.1 |
| 20260902160048 | 77 | 251 | 5.0 | 12.0 | 0.00 | 1.15 | 1.15 | 30 | 1011.3 |
| 20260902154540 | 75 | 301 | 6.0 | 14.0 | 0.00 | 1.15 | 1.15 | 30 | 1011.3 |
| 20260902153036 | 74 | 282 | 4.0 | 13.0 | 0.00 | 1.15 | 1.15 | 31 | 1011.2 |
| 20260902151520 | 73 | 270 | 4.0 | 11.0 | 0.00 | 1.15 | 1.15 | 32 | 1011.2 |
| 20260902150017 | 72 | 285 | 4.0 | 13.0 | 0.00 | 1.15 | 1.15 | 32 | 1011.4 |
| 20260902144516 | 71 | 289 | 3.0 | 8.0 | 0.01 | 1.15 | 1.15 | 32 | 1011.1 |
| 20260902143015 | 69 | 298 | 4.0 | 10.0 | 0.03 | 1.15 | 1.15 | 32 | 1011.6 |
| 20260902141512 | 68 | 304 | 0.0 | 1.0 | 0.10 | 1.15 | 1.15 | 33 | 1011.9 |
| 20260902140012 | 68 | 304 | 0.0 | 8.0 | 0.85 | 1.15 | 1.15 | 33 | 1011.5 |
| 20260902134511 | 68 | 327 | 0.0 | 9.0 | 1.14 | 1.14 | 1.14 | 32 | 1011.9 |
| 20260902133008 | 68 | 330 | 8.0 | 19.0 | 1.12 | 1.12 | 1.12 | 32 | 1012.9 |
| 20260902131505 | 69 | 354 | 9.0 | 18.0 | 1.05 | 1.05 | 1.05 | 32 | 1013.7 |
| 20260902130001 | 72 | 263 | 12.0 | 32.0 | 0.17 | 0.17 | 0.17 | 31 | 1013.0 |
| 20260902124609 | 72 | 257 | 5.0 | 11.0 | 0.00 | 0.00 | 0.00 | 31 | 1011.1 |
| 20260902123143 | 72 | 249 | 4.0 | 9.0 | 0.00 | 0.00 | 0.00 | 32 | 1011.2 |
| 20260902121556 | 72 | 274 | 2.0 | 12.0 | 0.00 | 0.00 | 0.00 | 32 | 1011.5 |
| 20260902120055 | 72 | 236 | 5.0 | 12.0 | 0.00 | 0.00 | 0.00 | 32 | 1010.1 |
| 20260902114553 | 72 | 241 | 7.0 | 16.0 | 0.00 | 0.00 | 0.00 | 32 | 1010.7 |
| 20260902113051 | 72 | 244 | 5.0 | 13.0 | 0.00 | 0.00 | 0.00 | 32 | 1010.2 |
| 20260902111552 | 71 | 221 | 1.0 | 7.0 | 0.00 | 0.00 | 0.00 | 32 | 1010.0 |
| 20260902110057 | 71 | 214 | 4.0 | 10.0 | 0.00 | 0.00 | 0.00 | 32 | 1010.2 |
| 20260902104550 | 71 | 247 | 3.0 | 12.0 | 0.00 | 0.00 | 0.00 | 32 | 1010.1 |
| 20260902103047 | 71 | 238 | 0.0 | 10.0 | 0.00 | 0.00 | 0.00 | 32 | 1010.2 |
| 20260902101553 | 71 | 239 | 1.0 | 4.0 | 0.00 | 0.00 | 0.00 | 32 | 1010.0 |
| 20260902100043 | 71 | 238 | 0.0 | 1.0 | 0.00 | 0.00 | 0.00 | 32 | 1010.4 |
| 20260902094545 | 72 | 238 | 0.0 | 2.0 | 0.00 | 0.03 | 0.00 | 32 | 1010.6 |
| 20260902093040 | 72 | 238 | 0.0 | 7.0 | 0.00 | 0.03 | 0.00 | 32 | 1010.8 |
| 20260902091558 | 72 | 238 | 1.0 | 6.0 | 0.00 | 0.03 | 0.00 | 32 | 1010.8 |
| 20260902090042 | 72 | 238 | 3.0 | 7.0 | 0.00 | 0.03 | 0.00 | 32 | 1010.8 |
| 20260902084548 | 72 | 240 | 3.0 | 8.0 | 0.00 | 0.03 | 0.00 | 32 | 1010.9 |
| 20260902083041 | 72 | 238 | 0.0 | 3.0 | 0.00 | 0.03 | 0.00 | 32 | 1011.3 |
| 20260902081537 | 72 | 238 | 0.0 | 4.0 | 0.00 | 0.03 | 0.00 | 32 | 1011.3 |
| 20260902080034 | 72 | 240 | 3.0 | 9.0 | 0.00 | 0.03 | 0.00 | 32 | 1011.4 |
| 20260902074534 | 72 | 230 | 2.0 | 8.0 | 0.00 | 0.03 | 0.00 | 32 | 1011.2 |
| 20260902073037 | 71 | 286 | 1.0 | 3.0 | 0.00 | 0.03 | 0.00 | 32 | 1011.4 |
| 20260902071535 | 72 | 286 | 0.0 | 2.0 | 0.00 | 0.03 | 0.00 | 32 | 1011.5 |
| 20260902070039 | 72 | 286 | 0.0 | 4.0 | 0.00 | 0.03 | 0.00 | 32 | 1011.3 |
| 20260902064538 | 71 | 286 | 0.0 | 4.0 | 0.00 | 0.03 | 0.00 | 32 | 1011.4 |
| 20260902063029 | 71 | 286 | 1.0 | 5.0 | 0.00 | 0.03 | 0.00 | 32 | 1011.5 |
| 20260902061528 | 71 | 286 | 0.0 | 5.0 | 0.00 | 0.03 | 0.00 | 32 | 1011.7 |
| 20260902060027 | 71 | 330 | 0.0 | 4.0 | 0.00 | 0.03 | 0.00 | 32 | 1011.8 |
| 20260902054526 | 71 | 329 | 0.0 | 1.0 | 0.00 | 0.05 | 0.00 | 32 | 1011.9 |
| 20260902053025 | 71 | 330 | 0.0 | 2.0 | 0.00 | 0.05 | 0.00 | 32 | 1011.7 |
| 20260902051522 | 71 | 329 | 0.0 | 3.0 | 0.00 | 0.05 | 0.00 | 32 | 1011.7 |
| 20260902050022 | 71 | 329 | 0.0 | 3.0 | 0.00 | 0.05 | 0.00 | 32 | 1011.5 |
| 20260902044521 | 71 | 330 | 0.0 | 0.0 | 0.00 | 0.06 | 0.00 | 33 | 1011.4 |
| 20260902043020 | 71 | 330 | 0.0 | 0.0 | 0.00 | 0.06 | 0.00 | 33 | 1011.5 |
| 20260902041537 | 71 | 330 | 0.0 | 2.0 | 0.00 | 0.06 | 0.00 | 33 | 1011.3 |